MAUNA LOA HI US current weather conditions

sailwx.info

Wind from 158 at 4 knots gusting 10

Air temperature 18.9° C
Dewpoint 13.1° C

Last reported at 2015-Feb-27 20:34 UTC.
Time now 2015-Feb-27 21:17 UTC

Location: N 19°28' W 155°22'.
View on Google Maps.

See reports from other nearby stations

  
Tides and Currents Weather Stations Pressure Air Temp Water Temp Dewpoint Dewpoint Depression Visibility Wind Speed Wind Dir Waves Ship Positions
date/time (UTC)wind fromknots sea level pressurealtimeterstation pressurevisibilityair tempwater tempwave heightnotes
2015-Feb-27 20:34 158 4 gusting 10 18.9
2015-Feb-27 19:34 157 3 gusting 8 17.2
2015-Feb-27 18:34 165 1 gusting 4 16.1
2015-Feb-27 17:34 298 4 gusting 7 9.4
2015-Feb-27 16:34 312 5 gusting 6 6.1
2015-Feb-27 15:34 295 4 gusting 6 5.6
2015-Feb-27 14:34 313 4 gusting 6 6.1
2015-Feb-27 13:34 312 4 gusting 6 6.7
2015-Feb-27 12:34 318 4 gusting 6 6.7
2015-Feb-27 11:34 315 4 gusting 6 6.7
2015-Feb-27 10:34 320 4 gusting 6 7.8
2015-Feb-27 09:34 317 4 gusting 7 8.9
2015-Feb-27 08:34 316 3 gusting 5 10.0
2015-Feb-27 07:34 309 1 gusting 6 10.0
2015-Feb-27 06:34 292 2 gusting 4 8.9
2015-Feb-27 05:34 247 0 gusting 3 11.1
2015-Feb-27 04:34 142 0 gusting 4 13.3
2015-Feb-27 03:34 081 2 gusting 5 13.3
2015-Feb-27 02:34 134 1 gusting 7 13.9
2015-Feb-27 01:34 164 1 gusting 7 13.3
2015-Feb-27 00:34 137 2 gusting 13 13.9
2015-Feb-26 23:34 108 6 gusting 12 18.9
2015-Feb-26 22:34 152 6 gusting 13 21.1
2015-Feb-26 21:34 147 6 gusting 12 21.7
2015-Feb-26 20:34 143 4 gusting 10 21.1
2015-Feb-26 19:34 137 3 gusting 7 18.9
2015-Feb-26 18:34 213 2 gusting 6 16.7
2015-Feb-26 17:34 272 4 gusting 6 9.4
2015-Feb-26 16:34 300 2 gusting 4 7.2
2015-Feb-26 15:34 293 2 gusting 6 8.9
2015-Feb-26 14:34 318 4 gusting 6 8.3
2015-Feb-26 13:34 342 2 gusting 4 8.3
2015-Feb-26 12:34 310 3 gusting 7 10.0
2015-Feb-26 11:34 341 3 gusting 10 12.8
2015-Feb-26 10:34 088 2 gusting 11 14.4
2015-Feb-26 09:34 306 3 gusting 9 12.2
2015-Feb-26 08:34 326 4 gusting 13 14.4
2015-Feb-26 07:34 326 6 gusting 12 13.9
2015-Feb-26 06:34 344 4 gusting 11 12.8
2015-Feb-26 05:34 348 5 gusting 11 12.8
2015-Feb-26 04:34 355 5 gusting 13 12.8
2015-Feb-26 03:34 021 6 gusting 11 15.0
2015-Feb-26 02:34 030 6 gusting 10 17.2
2015-Feb-26 01:34 038 5 gusting 12 22.2
2015-Feb-26 00:34 031 5 gusting 16 21.7
2015-Feb-25 23:34 014 6 gusting 14 22.2
2015-Feb-25 22:34 026 7 gusting 15 22.8
2015-Feb-25 21:34 139 2 gusting 18 21.1